Location: Rancho Del Sol Observatory
(38.7214°N, 120.6350°W)
Time: 07:21:59
(UTC-08:00)

A-11 Canister half - Pass Details

Date: 28 January 2020
Orbit: 1517 x 1683 km, 47.2° (Epoch: 26 February)

Event Time Altitude Azimuth Distance (km) Brightness Sun altitude
Rises 23:02:56 0° 245° (WSW) 4,770 - -64.0°
Reaches altitude 10° 23:06:04 10° 247° (WSW) 3,765 - -64.4°
Maximum altitude 23:15:35 76° 333° (NNW) 1,579 - -65.6°
Drops below altitude 10° 23:24:54 10° 60° (ENE) 3,683 - -66.6°
Sets 23:27:56 0° 62° (ENE) 4,663 - -66.9°
